Tracking 19242 objects as of 16-Aug-2018
HD Live streaming from Space Station
objects crossing your sky now

MOLNIYA 1-S

Track MOLNIYA 1-S now!
MOLNIYA 1-S is classified as:


NORAD ID: 7392
Int'l Code: 1974-060A
Perigee: 35,762.4 km
Apogee: 35,825.3 km
Inclination: 8.4 °
Period: 1,436.1 minutes
Semi major axis: 42164 km
RCS: 1.5848 m2 (large)
Launch date: July 29, 1974
Source: Commonwealth of Independent States (former USSR) (CIS)
Launch site: TYURATAM MISSILE AND SPACE COMPLEX (TTMTR)
aabbcc
Your satellite tracking list
Your tracking list is empty




NASA's NSSDC Master Catalog

Two Line Element Set (TLE):
1  7392U 74060A   18227.85388542 +.00000122 +00000-0 +00000-0 0  9996
2  7392 008.3523 302.3133 0007457 179.0641 191.2647 01.00271455105472
Source of the keplerian elements: AFSPC